Location: Auckland
(36.8670°S, 174.7670°E)
Time: 13:16:13
(UTC+12:00)

deb Explorer IX - All Passes

Search period start: 23 July 2019 00:00
Search period end: 02 August 2019 00:00
Orbit: 539 x 1112 km, 38.8° (Epoch: 21 July)

Date Brightness Start Highest point End Pass type
(mag) Time Alt. Az. Time Alt. Az. Time Alt. Az.
23 Jul - 11:21:23 10° N 11:25:19 17° NE 11:29:35 10° E daylight
23 Jul - 13:05:22 10° NW 13:11:45 56° NNE 13:18:51 10° ESE daylight
23 Jul - 14:52:11 10° W 14:59:14 82° S 15:06:44 10° E daylight
23 Jul - 16:39:47 10° W 16:47:11 81° S 16:54:33 10° E daylight
23 Jul - 18:27:29 10° WSW 18:34:48 60° NNW 18:41:41 10° NE visible
23 Jul - 20:16:21 10° W 20:21:27 21° NW 20:26:15 10° N visible
24 Jul - 10:59:29 10° N 11:03:19 17° NE 11:07:27 10° E daylight
24 Jul - 12:43:28 10° NW 12:49:42 56° NNE 12:56:44 10° ESE daylight
24 Jul - 14:30:14 10° W 14:37:09 82° S 14:44:39 10° E daylight
24 Jul - 16:17:47 10° W 16:25:05 82° S 16:32:31 10° E daylight
24 Jul - 18:05:25 10° WSW 18:12:42 59° NNW 18:19:42 10° NE visible
24 Jul - 19:54:15 10° W 19:59:24 21° NW 20:04:16 10° N visible
25 Jul - 10:37:37 10° N 10:41:19 17° NE 10:45:20 10° E daylight
25 Jul - 12:21:34 10° NW 12:27:39 56° NNE 12:34:36 10° ESE daylight
25 Jul - 14:08:19 10° W 14:15:06 81° S 14:22:33 10° E daylight
25 Jul - 15:55:47 10° W 16:03:00 82° S 16:10:28 10° E daylight
25 Jul - 17:43:21 10° WSW 17:50:37 59° NNW 17:57:40 10° NE visible
25 Jul - 19:32:11 10° W 19:37:20 21° NW 19:42:15 10° N visible
26 Jul - 10:15:46 10° N 10:19:19 17° NE 10:23:11 10° E daylight
26 Jul - 11:59:43 10° NW 12:05:38 57° NNE 12:12:29 10° ESE daylight
26 Jul - 13:46:25 10° W 13:53:02 81° S 14:00:26 10° E daylight
26 Jul - 15:33:48 10° W 15:40:55 82° S 15:48:24 10° E daylight
26 Jul - 17:21:19 10° WSW 17:28:31 58° NNW 17:35:39 10° NE daylight
26 Jul - 19:10:08 10° W 19:15:15 20° NW 19:20:13 10° N visible
27 Jul - 09:53:55 10° N 09:57:20 16° NE 10:01:04 10° E daylight
27 Jul - 11:37:51 10° NW 11:43:37 57° NNE 11:50:19 10° ESE daylight
27 Jul - 13:24:31 10° W 13:30:59 80° S 13:38:18 10° E daylight
27 Jul - 15:11:51 10° WSW 15:18:51 83° S 15:26:19 10° E daylight
27 Jul - 16:59:17 10° WSW 17:06:25 57° NNW 17:13:35 10° NE daylight
27 Jul - 18:48:05 10° W 18:53:11 20° NW 18:58:09 10° N visible
28 Jul - 09:32:06 10° N 09:35:22 16° NE 09:38:56 10° E daylight
28 Jul - 11:16:01 10° NW 11:21:37 57° NNE 11:28:12 10° ESE daylight
28 Jul - 13:02:39 10° W 13:08:57 80° S 13:16:10 10° E daylight
28 Jul - 14:49:55 10° WSW 14:56:47 83° SSE 15:04:13 10° E daylight
28 Jul - 16:37:18 10° WSW 16:44:19 56° NNW 16:51:31 10° NE daylight
28 Jul - 18:26:04 10° W 18:31:06 20° NW 18:36:03 10° N visible
29 Jul - 09:10:17 10° N 09:13:25 16° NE 09:16:49 10° ENE daylight
29 Jul - 10:54:12 10° NW 10:59:38 57° NNE 11:06:03 10° ESE daylight
29 Jul - 12:40:47 10° W 12:46:55 79° S 12:54:02 10° E daylight
29 Jul - 14:28:00 10° WSW 14:34:42 83° S 14:42:07 10° E daylight
29 Jul - 16:15:18 10° WSW 16:22:13 55° NNW 16:29:25 10° NE daylight
29 Jul - 18:04:04 10° W 18:09:01 19° NW 18:13:56 10° N visible
30 Jul - 08:48:29 10° N 08:51:28 16° NE 08:54:43 10° ENE daylight
30 Jul - 10:32:23 10° NW 10:37:39 57° NNE 10:43:55 10° ESE daylight
30 Jul - 12:18:57 10° W 12:24:55 79° S 12:31:53 10° E daylight
30 Jul - 14:06:05 10° WSW 14:12:38 83° S 14:19:59 10° E daylight
30 Jul - 15:53:21 10° WSW 16:00:08 54° NNW 16:07:19 10° NE daylight
30 Jul - 17:42:07 10° W 17:46:56 19° NW 17:51:46 10° N daylight
31 Jul - 08:26:41 10° N 08:29:32 15° NE 08:32:37 10° ENE daylight
31 Jul - 10:10:36 10° NW 10:15:42 58° NNE 10:21:47 10° ESE daylight
31 Jul - 11:57:08 10° W 12:02:55 78° S 12:09:45 10° E daylight
31 Jul - 13:44:12 10° WSW 13:50:36 84° S 13:57:51 10° E daylight
31 Jul - 15:31:24 10° WSW 15:38:03 53° NNW 15:45:11 10° NE daylight
31 Jul - 17:20:10 10° W 17:24:51 18° NW 17:29:36 10° N daylight
01 Aug - 08:04:54 10° N 08:07:36 15° NE 08:10:32 10° ENE daylight
01 Aug - 09:48:48 10° NW 09:53:46 58° NNE 09:59:40 10° ESE daylight
01 Aug - 11:35:19 10° W 11:40:57 77° S 11:47:36 10° E daylight
01 Aug - 13:22:20 10° WSW 13:28:34 84° SSE 13:35:42 10° E daylight
01 Aug - 15:09:28 10° W 15:15:58 52° NNW 15:23:02 10° NE daylight
01 Aug - 16:58:15 10° W 17:02:46 18° NW 17:07:24 10° N daylight
